Location: Aldenham
(51.6667°N, 0.3500°W)
Time: 17:03:18
(UTC+00:00)

Resurs 01 Rocket - Pass Details

Date: 18 November 2025
Orbit: 626 x 637 km, 97.7° (Epoch: 10 December)

Event Time Altitude Azimuth Distance (km) Brightness Sun altitude
Exits shadow 19:07:36 30° 343° (NNW) 1,150 3.0 -27.6°
Drops below altitude 10° 19:09:52 10° 345° (NNW) 2,037 4.4 -27.9°
Sets 19:12:05 0° 346° (NNW) 2,949 5.3 -28.3°
